Temperature
7 7 7 7 7 7 7 8 9 10 10 11 12 12 11 10 8 7 5 4 3 3 3 3 3 3 4 4 4 4 4 5 5 4 4 4 5 5 5 5 5 5 5 5
7 7 7 7 7 7 7 8 8 9 9 11 11 10 10 9 8 6 4 3 2 2 2 2 3 3 3 3 3 3 3 4 3 3 3 3 3 3 3 3 3 3 2 2
8 7 7 7 8 8 8 8 9 9 10 11 11 11 10 8 7 5 4 3 2 2 2 2 2 2 2 2 2 2 2 2 2 2 2 2 2 2 1 1 1 1 0 0
7 7 6 10 9 9 9 9 9 9 10 11 10 9 8 6 6 4 3 3 2 2 1 1 1 1 1 1 1 1 1 1 1 1 1 1 1 0 0 -0 -0 -0 -0 -1
7 8 8 10 9 8 8 9 10 9 10 10 9 8 7 5 5 4 4 3 2 2 1 1 1 1 1 1 1 1 1 1 0 0 0 0 0 -0 -0 -0 -1 -1 -1 -1
7 7 8 10 9 8 9 10 10 9 10 9 8 10 10 6 5 4 4 3 2 2 2 1 1 1 1 1 1 1 0 0 0 0 0 0 -0 -0 -1 -1 -1 -1 -1 -1
7 7 9 10 9 9 9 10 9 9 9 8 9 9 7 6 5 4 4 3 3 2 2 2 1 1 1 1 0 0 0 0 0 0 0 -0 -0 -0 -1 -1 -1 -1 -1 -2
7 7 8 9 8 9 10 9 8 8 8 7 7 6 6 5 4 4 4 3 3 3 2 2 1 1 1 1 0 0 0 0 0 -0 -0 -0 -1 -1 -1 -1 -1 -2 -2 -3
9 9 9 8 9 9 8 8 8 8 8 7 7 6 6 5 4 4 4 3 3 3 2 2 1 1 1 1 0 0 0 0 -0 -0 -0 -1 -1 -1 -1 -2 -2 -3 -3 -4
8 9 9 8 8 8 8 8 8 8 8 7 7 6 6 5 4 4 4 4 3 3 2 2 2 1 1 1 0 0 0 -0 -0 -0 -1 -1 -1 -1 -2 -2 -3 -3 -4 -4
8 9 8 8 8 8 8 8 8 8 8 7 7 6 6 5 5 4 4 4 3 3 3 2 2 1 1 1 0 0 -0 -0 -0 -1 -1 -1 -2 -2 -2 -3 -3 -4 -5 -5
9 9 9 8 7 7 7 7 7 7 7 7 6 6 6 5 5 4 4 4 3 3 3 2 2 1 1 1 0 -0 -0 -0 -1 -1 -1 -2 -2 -3 -3 -3 -4 -5 -5 -6
7 6 6 6 6 6 6 7 7 7 7 6 6 6 6 5 5 4 4 4 4 3 3 2 2 1 1 1 0 -0 -0 -1 -1 -1 -2 -2 -3 -3 -4 -4 -5 -5 -6 -6
5 6 5 5 6 6 6 6 6 6 6 6 6 5 5 5 4 4 4 4 3 3 2 2 2 1 1 0 0 -0 -1 -1 -1 -2 -2 -3 -3 -4 -4 -5 -5 -6 -6 -7
5 5 5 5 5 5 5 5 5 5 5 5 5 5 5 4 4 4 3 3 3 3 2 2 2 1 1 0 0 -0 -1 -1 -1 -2 -2 -3 -3 -4 -4 -5 -6 -6 -7 -7
4 4 4 4 4 3 4 4 4 4 4 5 5 4 4 4 3 3 3 3 3 3 2 2 2 1 1 0 -0 -1 -1 -1 -2 -2 -2 -3 -3 -4 -5 -5 -6 -6 -7 -7
3 3 3 3 2 2 2 3 3 3 4 4 4 4 3 3 3 2 2 2 2 2 2 2 1 1 0 -0 -0 -1 -1 -1 -2 -2 -3 -3 -4 -4 -5 -6 -6 -7 -7 -8
2 2 2 1 1 2 2 2 2 3 3 3 3 3 3 3 3 2 2 2 1 1 1 1 1 0 0 -0 -1 -1 -1 -2 -2 -2 -3 -3 -4 -4 -5 -6 -6 -7 -8 -8
1 1 1 1 1 1 1 2 2 2 3 3 3 3 3 2 2 2 1 1 1 1 1 0 0 -0 -0 -1 -1 -1 -2 -2 -2 -3 -3 -4 -4 -5 -5 -6 -7 -7 -8 -8
1 1 1 1 1 1 1 1 2 2 2 2 3 2 2 2 1 1 0 0 0 1 0 -0 -0 -0 -1 -1 -1 -2 -2 -2 -3 -3 -3 -4 -4 -5 -6 -6 -7 -8 -8 -8
0 1 1 1 1 1 1 1 1 2 2 2 2 2 2 1 1 0 -0 -0 -0 -0 -1 -1 -1 -1 -1 -1 -2 -2 -2 -2 -3 -3 -3 -4 -5 -5 -6 -7 -7 -8 -8 -8
0 0 0 0 0 0 0 1 1 1 1 1 1 1 1 0 0 -0 -1 -1 -1 -1 -1 -1 -1 -1 -1 -2 -2 -2 -2 -3 -3 -3 -4 -4 -5 -5 -6 -7 -7 -8 -8 -8
-0 -0 -0 -0 -0 -0 -0 -0 -0 -0 0 -0 -0 -0 -0 -0 -1 -1 -1 -1 -1 -1 -1 -1 -1 -2 -2 -2 -2 -2 -3 -3 -3 -3 -4 -4 -5 -6 -6 -7 -7 -8 -8 -8
-0 -1 -1 -1 -1 -1 -1 -1 -1 -1 -1 -1 -1 -1 -1 -1 -1 -1 -1 -1 -1 -1 -1 -1 -2 -2 -2 -2 -2 -3 -3 -3 -3 -4 -4 -5 -5 -6 -6 -7 -7 -7 -8 -8
-1 -1 -1 -1 -1 -1 -1 -1 -1 -2 -2 -2 -2 -2 -2 -2 -2 -2 -1 -1 -2 -2 -2 -2 -2 -3 -3 -3 -3 -3 -3 -3 -4 -4 -4 -5 -5 -6 -6 -7 -7 -7 -8 -8
-1 -1 -2 -2 -2 -2 -2 -2 -2 -2 -2 -2 -2 -2 -2 -2 -2 -2 -2 -2 -2 -2 -2 -2 -3 -3 -3 -3 -3 -3 -4 -4 -4 -4 -5 -5 -6 -6 -6 -7 -7 -7 -7 -7
-2 -2 -2 -2 -2 -2 -2 -2 -2 -2 -2 -2 -2 -2 -2 -2 -2 -2 -2 -2 -2 -2 -3 -3 -3 -3 -3 -3 -4 -4 -4 -4 -4 -5 -5 -5 -6 -6 -6 -7 -7 -7 -7 -7
Wind_Speed
1 2 4 6 10 14 12 9 7 5 5 7 7 7 8 7 5 4 2 3 4 5 6 6 7 7 8 8 9 9 9 10 10 10 10 10 11 11 11 12 12 11 11 11
1 3 5 6 10 14 15 14 14 12 11 11 9 6 7 7 5 4 2 2 3 4 5 6 6 7 7 8 8 8 9 9 9 9 10 10 11 11 12 12 12 12 12 12
3 2 3 9 12 16 11 12 12 14 11 8 8 9 9 7 5 3 1 0 1 3 4 5 5 6 6 7 7 8 9 9 9 9 10 10 10 11 12 11 12 12 12 13
2 3 6 2 2 9 14 14 14 12 12 11 10 10 7 4 3 2 2 1 1 2 3 3 4 5 5 6 7 8 9 9 8 9 9 10 11 11 11 11 11 11 12 13
3 4 6 5 4 6 8 7 12 16 15 12 8 6 3 3 3 3 3 2 2 2 2 3 4 4 5 6 7 8 8 8 8 8 9 9 10 10 9 10 11 10 10 11
4 4 5 1 3 5 5 3 4 7 8 6 3 4 1 6 5 5 4 3 3 3 3 4 4 4 5 6 7 8 7 7 7 8 9 9 9 9 9 9 9 9 10 9
7 6 6 3 4 6 5 3 3 3 4 4 4 3 3 7 6 5 5 4 4 4 4 4 4 5 6 6 6 6 6 7 8 8 8 8 8 8 8 8 8 8 8 7
7 8 7 4 7 6 1 1 1 3 3 4 3 2 5 7 7 7 7 6 5 5 4 4 4 5 6 6 5 5 6 7 7 7 7 6 7 7 7 7 7 6 6 6
7 6 1 4 4 1 0 2 3 3 3 3 3 5 7 8 8 8 8 7 6 6 6 5 5 5 7 5 5 6 7 7 7 7 7 6 6 6 5 5 4 4 3 3
6 8 7 6 6 4 3 4 4 4 4 4 5 6 8 8 9 9 9 8 8 8 7 6 5 5 6 6 6 7 7 7 6 6 6 6 5 4 4 3 3 2 2 2
8 6 4 5 4 3 2 2 3 3 4 5 6 7 9 9 10 10 9 9 8 8 8 8 7 6 6 7 7 7 7 6 5 5 5 5 5 4 4 3 3 2 1 1
7 5 4 3 2 0 1 3 3 4 4 4 6 7 8 9 9 10 10 10 9 9 9 8 8 7 7 7 7 7 6 5 4 4 4 4 4 4 5 5 5 4 2 1
3 1 2 1 1 1 3 4 5 5 5 5 5 6 8 8 9 10 10 11 11 11 10 9 9 8 7 7 7 6 6 5 4 4 3 3 2 2 2 2 3 3 4 3
2 2 3 2 1 4 5 5 5 4 4 4 5 6 8 8 10 11 12 11 10 10 10 10 9 9 8 8 7 6 6 5 4 4 3 3 2 2 2 2 2 2 2 3
4 2 3 3 5 4 4 4 4 5 4 4 5 6 8 10 11 11 10 10 10 10 10 10 10 9 8 8 8 7 6 5 4 4 3 3 3 2 2 2 3 3 3 3
2 2 3 4 5 5 5 5 6 7 6 6 6 7 9 9 9 9 10 11 12 12 12 11 10 9 9 9 8 6 5 7 6 4 4 3 3 3 3 3 3 4 4 4
2 2 2 3 5 7 7 7 8 8 7 7 7 7 7 8 8 9 10 11 9 9 10 11 10 10 10 9 8 6 6 7 8 5 4 4 3 3 3 3 4 4 4 5
2 2 4 6 7 9 9 9 8 8 8 7 6 7 9 10 11 10 10 9 8 7 8 9 9 10 10 9 8 6 6 6 5 5 4 4 3 3 3 4 4 5 5 5
1 2 4 5 6 7 8 9 9 8 7 6 6 8 9 10 9 9 9 10 11 11 9 9 13 11 10 11 9 6 6 6 5 4 4 4 4 3 3 4 4 5 5 5
1 2 4 5 5 5 7 7 7 6 4 4 5 6 7 7 8 9 10 10 9 6 8 11 12 10 10 11 11 6 7 7 6 5 4 4 4 4 4 4 5 5 5 6
3 4 4 5 6 6 6 6 6 5 3 2 4 5 6 6 7 8 9 8 6 6 9 14 11 9 9 10 11 7 7 6 6 5 5 4 4 4 4 4 5 5 5 6
3 4 5 5 6 6 6 6 5 4 3 1 1 2 4 5 7 7 7 5 6 11 9 9 8 11 13 13 8 7 7 6 5 5 4 4 4 4 4 5 5 5 6 6
2 3 4 5 5 5 5 6 6 5 3 2 2 2 4 4 5 5 5 5 6 12 10 8 11 16 17 11 7 7 7 7 6 5 5 4 4 4 4 5 5 5 6 6
2 3 4 5 4 4 5 6 6 5 4 3 2 2 2 3 3 4 2 6 11 12 9 11 16 18 17 8 7 7 7 6 6 5 5 4 4 4 4 5 5 6 6 8
1 2 3 4 4 4 5 6 5 5 4 3 3 2 1 2 3 3 4 5 9 11 7 11 17 18 12 7 8 7 7 6 6 5 5 4 4 4 5 5 5 6 7 7
1 2 2 2 2 3 4 4 4 4 4 4 3 2 2 1 1 2 3 5 7 10 7 7 10 13 9 8 7 7 6 6 6 5 5 5 5 5 5 5 7 7 7 7
2 2 2 2 2 3 3 3 4 4 4 4 4 3 2 2 2 2 3 4 5 6 6 6 7 8 8 7 7 6 5 5 5 5 4 4 4 5 5 6 6 6 6 7
Wind_Direction
114 123 165 199 200 198 207 217 224 239 249 259 276 295 304 311 318 318 334 1 9 10 11 11 11 13 15 17 19 23 32 35 33 32 37 42 47 50 53 56 60 64 69 71
187 204 221 239 225 214 221 229 240 257 272 271 281 282 288 301 304 300 314 355 12 16 16 15 15 16 21 23 26 34 42 42 39 41 46 50 53 57 60 62 66 68 70 74
197 175 238 252 228 211 210 214 222 235 245 265 280 290 300 303 289 273 242 43 27 25 24 20 20 21 27 30 38 47 51 49 47 50 54 54 57 60 62 64 69 73 74 77
184 191 237 228 141 205 218 228 223 238 253 267 282 298 297 281 249 197 171 152 98 51 42 35 34 37 44 49 52 56 57 55 53 57 61 61 63 64 63 63 65 67 70 75
204 241 270 265 204 184 196 235 227 234 253 268 286 285 241 165 155 147 144 136 117 89 70 61 55 58 67 66 64 63 60 58 57 62 66 65 65 64 65 69 68 67 68 74
205 241 249 162 132 171 184 213 179 209 242 267 266 269 185 151 151 145 142 142 134 119 101 86 76 82 84 76 72 65 62 63 63 67 71 71 71 71 73 76 77 78 73 73
221 244 267 239 155 157 202 168 151 210 253 257 244 285 110 148 157 158 153 148 141 128 111 98 98 102 95 85 75 71 75 76 74 75 78 81 81 78 82 85 85 83 81 73
207 226 247 156 163 194 219 63 244 265 265 254 246 184 157 167 168 166 162 158 149 136 124 118 121 119 107 95 92 94 93 88 83 82 83 84 88 86 87 92 91 89 87 80
212 227 330 175 198 216 256 263 272 271 257 239 230 208 187 183 178 175 172 165 159 151 143 137 137 136 127 126 126 119 108 98 92 88 84 86 91 93 91 88 89 89 87 83
240 249 248 247 249 250 248 255 276 270 258 234 234 212 192 184 180 178 177 172 166 163 160 154 149 144 139 141 140 129 116 108 105 101 95 89 86 85 87 85 87 87 83 78
238 252 257 247 217 230 258 270 280 271 246 238 232 214 197 188 184 181 177 175 174 175 169 162 158 152 150 152 149 137 126 121 116 109 108 98 86 76 77 69 49 60 66 41
222 213 210 183 122 109 280 293 295 281 262 239 225 218 200 193 186 182 179 176 176 176 171 166 164 161 160 161 160 148 140 140 135 130 124 120 116 104 76 73 79 67 42 333
232 165 232 271 303 30 311 305 300 278 262 253 233 214 199 192 185 183 182 182 182 179 174 169 169 168 168 168 169 166 158 153 150 152 153 153 157 164 159 111 82 51 23 357
198 212 242 236 258 324 313 307 299 282 264 249 229 208 196 190 186 188 189 187 181 175 174 173 172 173 171 171 171 167 160 157 161 165 170 176 185 201 227 251 261 267 331 328
176 210 261 295 301 303 308 303 290 274 262 244 221 208 198 194 194 194 187 177 172 174 177 177 178 176 172 173 171 167 164 164 167 169 175 181 188 204 226 247 268 280 286 282
202 266 267 273 288 300 301 292 282 277 266 247 230 219 210 205 198 189 180 176 177 185 185 184 185 177 171 172 169 167 172 172 170 173 179 187 199 214 233 251 266 276 284 295
202 231 250 277 291 297 295 288 282 280 272 255 240 221 204 195 191 189 186 187 190 188 185 187 183 171 172 175 173 171 168 173 178 181 191 198 209 225 241 258 272 282 287 294
238 271 280 284 289 294 295 293 288 280 270 261 238 208 199 198 199 195 186 179 179 183 190 187 175 170 174 176 176 170 170 173 179 188 194 202 215 228 245 262 275 282 289 292
265 290 294 291 291 291 292 294 293 285 274 251 218 209 207 206 201 189 177 179 187 195 195 183 176 173 176 179 173 171 172 174 181 190 198 209 216 231 249 262 273 280 285 289
25 347 329 321 317 307 303 304 303 296 280 236 211 206 206 202 190 180 182 193 199 190 171 174 177 179 178 179 174 173 176 181 186 191 199 212 226 241 252 262 271 277 281 283
16 357 347 340 333 331 330 327 324 321 313 234 210 211 206 192 183 180 187 201 194 169 170 177 178 180 178 176 176 176 179 184 190 195 202 214 229 242 253 261 268 272 277 281
5 354 349 344 341 342 345 346 345 342 344 319 238 203 188 184 185 192 204 205 178 178 177 182 183 184 180 175 176 179 183 188 192 197 205 215 228 242 252 261 266 271 274 276
357 348 345 345 340 336 346 358 357 353 347 328 275 220 207 201 192 196 210 197 178 186 184 187 188 185 180 175 178 181 185 190 195 201 209 217 228 240 252 260 265 269 274 277
346 347 343 339 341 353 357 353 349 348 344 336 317 260 216 205 210 212 210 188 190 190 190 192 189 187 181 179 181 184 188 192 197 202 209 218 228 238 248 257 264 269 272 275
325 330 339 346 355 351 340 336 339 349 353 349 345 333 271 231 224 209 196 195 196 192 190 194 192 189 183 181 185 187 190 195 196 198 208 218 229 238 248 255 260 268 272 273
278 305 317 322 324 327 328 331 333 335 337 335 331 324 315 294 238 204 197 198 200 194 188 188 190 189 185 186 188 189 190 195 204 209 212 221 235 243 251 256 263 266 270 274
251 273 290 302 317 330 328 324 322 323 324 320 315 310 304 288 252 220 208 200 197 190 185 187 188 183 182 185 186 187 189 190 196 206 213 223 234 243 251 257 263 268 272 274
Height
1483 1484 1486 1486 1487 1490 1491 1487 1485 1478 1480 1474 1474 1476 1477 1477 1476 1476 1474 1473 1471 1469 1467 1466 1464 1462 1459 1457 1455 1452 1450 1448 1446 1443 1441 1439 1437 1435 1433 1432 1431 1431 1430 1430
1485 1485 1486 1485 1483 1484 1485 1484 1482 1481 1479 1472 1473 1474 1474 1474 1473 1472 1472 1470 1468 1467 1465 1464 1462 1460 1458 1456 1454 1452 1450 1448 1446 1444 1442 1439 1437 1436 1434 1433 1432 1432 1431 1432
1480 1484 1485 1479 1472 1475 1477 1476 1476 1477 1473 1470 1471 1471 1471 1471 1470 1469 1468 1467 1466 1465 1464 1462 1461 1459 1458 1456 1454 1453 1451 1449 1447 1446 1443 1441 1440 1438 1437 1436 1436 1435 1436 1436
1480 1483 1483 1465 1466 1467 1469 1469 1471 1469 1468 1468 1469 1468 1468 1467 1467 1466 1466 1465 1464 1463 1462 1461 1460 1459 1458 1456 1455 1453 1452 1451 1450 1448 1446 1445 1444 1442 1441 1441 1441 1440 1441 1441
1478 1474 1466 1463 1464 1466 1467 1465 1464 1466 1466 1466 1466 1466 1464 1464 1463 1464 1463 1463 1462 1462 1461 1460 1460 1459 1458 1457 1456 1455 1454 1453 1452 1451 1450 1449 1448 1447 1447 1446 1446 1446 1446 1446
1477 1475 1466 1459 1461 1463 1465 1461 1461 1462 1463 1464 1464 1461 1461 1462 1461 1461 1461 1461 1461 1460 1460 1460 1460 1459 1459 1458 1458 1457 1456 1456 1455 1455 1454 1453 1452 1452 1451 1451 1451 1450 1450 1450
1473 1471 1460 1458 1461 1463 1464 1459 1460 1461 1461 1462 1461 1461 1461 1460 1460 1460 1460 1460 1460 1460 1460 1460 1460 1460 1460 1460 1459 1459 1459 1459 1458 1458 1457 1457 1456 1455 1455 1455 1454 1454 1453 1452
1468 1468 1461 1457 1459 1460 1457 1458 1458 1459 1459 1459 1459 1458 1458 1458 1458 1459 1459 1459 1459 1460 1460 1461 1461 1462 1462 1461 1462 1461 1461 1461 1461 1460 1460 1459 1459 1458 1458 1457 1457 1456 1455 1454
1458 1457 1455 1456 1456 1457 1457 1457 1457 1457 1456 1456 1456 1455 1455 1455 1456 1457 1458 1458 1459 1460 1461 1461 1462 1463 1463 1463 1463 1463 1464 1463 1463 1462 1462 1462 1461 1460 1460 1459 1458 1457 1456 1455
1456 1453 1453 1454 1454 1455 1455 1455 1455 1454 1454 1454 1453 1453 1453 1453 1454 1455 1456 1457 1458 1459 1461 1461 1462 1463 1464 1464 1465 1465 1465 1465 1464 1464 1464 1463 1462 1462 1461 1460 1459 1457 1456 1455
1451 1450 1451 1451 1451 1452 1452 1452 1452 1452 1451 1451 1450 1450 1450 1450 1451 1453 1454 1456 1457 1459 1460 1461 1462 1463 1464 1464 1465 1466 1466 1466 1465 1465 1464 1464 1463 1462 1461 1460 1459 1458 1456 1454
1445 1446 1447 1448 1449 1449 1450 1450 1449 1449 1448 1448 1447 1447 1447 1448 1449 1450 1452 1453 1455 1457 1459 1460 1461 1462 1463 1464 1465 1466 1466 1466 1466 1465 1465 1464 1463 1462 1460 1459 1457 1456 1454 1453
1444 1444 1445 1446 1447 1447 1447 1447 1446 1446 1445 1444 1444 1444 1444 1444 1446 1447 1449 1451 1453 1455 1457 1458 1460 1461 1462 1463 1464 1465 1465 1465 1465 1465 1464 1463 1462 1461 1460 1458 1456 1454 1452 1450
1441 1443 1443 1444 1444 1444 1444 1443 1442 1442 1441 1441 1440 1440 1440 1441 1442 1444 1446 1448 1450 1453 1454 1456 1458 1459 1461 1462 1463 1464 1464 1464 1464 1464 1463 1462 1461 1460 1458 1456 1455 1452 1450 1448
1438 1440 1441 1441 1441 1440 1440 1439 1438 1438 1437 1437 1436 1436 1437 1437 1439 1440 1443 1445 1447 1449 1451 1453 1455 1457 1459 1460 1461 1462 1463 1463 1463 1462 1462 1461 1460 1458 1456 1454 1452 1450 1447 1445
1436 1437 1437 1437 1437 1437 1436 1435 1434 1433 1433 1433 1432 1432 1433 1434 1436 1437 1439 1441 1443 1445 1448 1450 1453 1455 1457 1458 1459 1460 1461 1461 1461 1461 1460 1459 1457 1456 1454 1452 1450 1447 1445 1443
1434 1434 1434 1434 1434 1433 1432 1431 1430 1429 1429 1428 1428 1429 1429 1430 1431 1433 1435 1437 1440 1443 1445 1448 1450 1452 1454 1456 1457 1458 1458 1459 1459 1458 1458 1457 1455 1453 1451 1449 1447 1445 1442 1440
1431 1431 1431 1431 1430 1429 1428 1427 1426 1425 1424 1424 1424 1424 1425 1425 1426 1428 1431 1433 1436 1438 1441 1444 1447 1449 1451 1453 1454 1455 1456 1456 1456 1456 1455 1454 1452 1451 1449 1446 1444 1442 1439 1437
1428 1428 1428 1427 1427 1425 1424 1423 1421 1420 1420 1420 1420 1420 1421 1422 1423 1425 1427 1429 1430 1433 1436 1440 1443 1445 1448 1450 1451 1452 1453 1453 1453 1453 1452 1451 1449 1447 1445 1443 1441 1438 1436 1433
1426 1426 1426 1425 1424 1422 1421 1419 1418 1417 1416 1416 1416 1416 1417 1418 1419 1421 1422 1424 1426 1429 1433 1436 1439 1441 1444 1446 1448 1449 1450 1450 1450 1450 1449 1448 1446 1444 1442 1440 1437 1435 1432 1430
1425 1425 1424 1423 1422 1420 1418 1417 1415 1414 1413 1413 1413 1413 1414 1414 1415 1416 1418 1419 1422 1425 1429 1432 1435 1438 1440 1442 1444 1445 1446 1447 1447 1446 1445 1444 1442 1441 1438 1436 1434 1431 1429 1426
1424 1424 1422 1421 1420 1418 1417 1415 1413 1412 1411 1410 1410 1410 1410 1411 1412 1412 1414 1416 1418 1421 1424 1427 1430 1433 1436 1439 1440 1442 1443 1443 1443 1442 1442 1440 1439 1437 1435 1432 1430 1428 1425 1423
1423 1422 1421 1420 1418 1417 1415 1413 1412 1411 1409 1409 1408 1408 1408 1408 1408 1409 1410 1412 1414 1416 1419 1422 1426 1429 1432 1435 1436 1438 1439 1439 1439 1439 1438 1436 1435 1433 1431 1429 1426 1424 1422 1419
1422 1421 1420 1419 1417 1416 1414 1412 1411 1409 1408 1407 1406 1406 1406 1405 1405 1406 1407 1408 1410 1413 1415 1419 1422 1425 1428 1430 1432 1433 1434 1435 1435 1434 1433 1432 1431 1429 1427 1425 1423 1421 1418 1416
1421 1420 1419 1418 1416 1415 1413 1411 1410 1409 1407 1406 1405 1404 1403 1403 1403 1403 1404 1405 1407 1409 1412 1415 1418 1420 1423 1425 1427 1429 1430 1430 1430 1430 1429 1428 1426 1425 1423 1421 1419 1417 1415 1412
1419 1419 1418 1416 1415 1413 1412 1410 1409 1407 1406 1405 1404 1403 1402 1401 1401 1401 1401 1402 1404 1406 1408 1410 1413 1415 1418 1420 1423 1424 1425 1426 1426 1425 1425 1423 1422 1421 1419 1417 1415 1413 1411 1409
1417 1416 1415 1414 1413 1412 1410 1409 1407 1406 1404 1403 1402 1401 1400 1399 1399 1399 1399 1400 1401 1402 1404 1406 1408 1411 1413 1416 1418 1419 1420 1421 1421 1421 1420 1419 1418 1416 1415 1413 1411 1409 1407 1405